Location: Dąbrowa Górnicza
(50.3177°N, 19.1898°E)
Time: 23:50:51
(UTC+02:00)

ISS - Visible Passes

Search period start: 20 September 2018 00:00
Search period end: 30 September 2018 00:00
Orbit: 403 x 408 km, 51.6° (Epoch: 20 September)

Date Brightness Start Highest point End Pass type
(mag) Time Alt. Az. Time Alt. Az. Time Alt. Az.
22 Sep -1.8 20:27:35 10° SSW 20:28:50 18° S 20:28:50 18° S visible
23 Sep -2.0 19:36:32 10° S 19:38:41 16° SE 19:39:35 15° ESE visible
23 Sep -1.3 21:11:28 10° WSW 21:12:17 17° WSW 21:12:17 17° WSW visible
24 Sep -3.4 20:19:44 10° SW 20:22:51 44° SSE 20:22:51 44° SSE visible
25 Sep -2.8 19:28:12 10° SSW 19:31:08 30° SSE 19:33:16 15° E visible
25 Sep -2.1 21:04:07 10° WSW 21:05:57 30° W 21:05:57 30° W visible
26 Sep -3.9 20:12:13 10° WSW 20:15:31 74° SSE 20:16:13 51° E visible
26 Sep -0.4 21:48:49 10° W 21:48:54 11° W 21:48:54 11° W visible
27 Sep -3.5 19:20:25 10° SW 19:23:38 52° SSE 19:26:24 13° E visible
27 Sep -2.4 20:56:50 10° W 20:59:04 39° WNW 20:59:04 39° WNW visible
28 Sep -3.8 20:04:51 10° W 20:08:10 80° N 20:09:10 41° ENE visible
28 Sep -0.5 21:41:29 10° WNW 21:41:51 12° WNW 21:41:51 12° WNW visible
29 Sep -3.8 19:12:54 10° WSW 19:16:12 83° SSE 19:19:13 12° ENE visible
29 Sep -2.6 20:49:30 10° W 20:51:53 42° WNW 20:51:53 42° WNW visible
